Time,TemperatureF,DewpointF,PressureIn,WindDirection,WindDirectionDegrees,WindSpeedMPH,WindSpeedGustMPH,Humidity,HourlyPrecipIn,Conditions,Clouds,dailyrainin,SolarRadiationWatts/m^2,SoftwareType,DateUTC
2013-01-21 00:03:00,55.0,43.0,-100.00,South,191,5.0,8.0,65,0.00,,,0.00,0.000000,,2013-01-21 06:03:00,
2013-01-21 00:12:00,55.0,43.0,-100.00,South,191,5.0,8.0,65,0.00,,,0.00,0.000000,,2013-01-21 06:12:00,
2013-01-21 00:23:00,55.0,43.0,-100.00,South,191,5.0,8.0,65,0.00,,,0.00,0.000000,,2013-01-21 06:23:00,
2013-01-21 00:33:00,55.0,43.0,-100.00,South,191,5.0,8.0,65,0.00,,,0.00,0.000000,,2013-01-21 06:33:00,
2013-01-21 00:53:00,55.0,45.0,-100.00,SW,219,4.0,6.0,68,0.00,,,0.00,0.000000,,2013-01-21 06:53:00,
2013-01-21 01:03:00,55.0,45.0,-100.00,SW,219,4.0,6.0,68,0.00,,,0.00,0.000000,,2013-01-21 07:03:00,
2013-01-21 01:13:00,55.0,45.0,-100.00,SW,219,4.0,6.0,68,0.00,,,0.00,0.000000,,2013-01-21 07:13:00,
2013-01-21 01:22:00,55.0,45.0,-100.00,SW,219,4.0,6.0,68,0.00,,,0.00,0.000000,,2013-01-21 07:22:00,
2013-01-21 01:33:00,55.0,45.0,-100.00,SW,219,4.0,6.0,68,0.00,,,0.00,0.000000,,2013-01-21 07:33:00,
2013-01-21 01:53:00,53.0,45.0,-100.00,South,173,6.0,8.0,74,0.00,,,0.00,0.000000,,2013-01-21 07:53:00,
2013-01-21 02:03:00,53.0,45.0,-100.00,South,173,6.0,8.0,74,0.00,,,0.00,0.000000,,2013-01-21 08:03:00,
2013-01-21 02:13:00,53.0,45.0,-100.00,South,173,6.0,8.0,74,0.00,,,0.00,0.000000,,2013-01-21 08:13:00,
2013-01-21 02:23:00,53.0,45.0,-100.00,South,173,6.0,8.0,74,0.00,,,0.00,0.000000,,2013-01-21 08:23:00,
2013-01-21 02:32:00,53.0,45.0,-100.00,South,173,6.0,8.0,74,0.00,,,0.00,0.000000,,2013-01-21 08:32:00,
2013-01-21 02:53:00,53.0,45.0,-100.00,SSW,206,6.0,8.0,75,0.00,,,0.00,0.000000,,2013-01-21 08:53:00,
2013-01-21 03:03:00,53.0,45.0,-100.00,SSW,206,6.0,8.0,75,0.00,,,0.00,0.000000,,2013-01-21 09:03:00,
2013-01-21 03:12:00,53.0,45.0,-100.00,SSW,206,6.0,8.0,75,0.00,,,0.00,0.000000,,2013-01-21 09:12:00,
2013-01-21 03:23:00,53.0,45.0,-100.00,SSW,206,6.0,8.0,75,0.00,,,0.00,0.000000,,2013-01-21 09:23:00,
2013-01-21 03:33:00,53.0,45.0,-100.00,SSW,206,6.0,8.0,75,0.00,,,0.00,0.000000,,2013-01-21 09:33:00,
2013-01-21 03:53:00,52.0,45.0,-100.00,SW,217,5.0,7.0,77,0.00,,,0.00,0.000000,,2013-01-21 09:53:00,
2013-01-21 04:02:00,52.0,45.0,-100.00,SW,217,5.0,7.0,77,0.00,,,0.00,0.000000,,2013-01-21 10:02:00,
2013-01-21 04:12:00,52.0,45.0,-100.00,SW,217,5.0,7.0,77,0.00,,,0.00,0.000000,,2013-01-21 10:12:00,
2013-01-21 04:22:00,52.0,45.0,-100.00,SW,217,5.0,7.0,77,0.00,,,0.00,0.000000,,2013-01-21 10:22:00,
2013-01-21 04:32:00,52.0,45.0,-100.00,SW,217,5.0,7.0,77,0.00,,,0.00,0.000000,,2013-01-21 10:32:00,
2013-01-21 04:53:00,52.0,45.0,-100.00,SW,232,5.0,7.0,76,0.00,,,0.00,0.000000,,2013-01-21 10:53:00,
2013-01-21 05:03:00,52.0,45.0,-100.00,SW,232,5.0,7.0,76,0.00,,,0.00,0.000000,,2013-01-21 11:03:00,
2013-01-21 05:13:00,52.0,45.0,-100.00,SW,232,5.0,7.0,76,0.00,,,0.00,0.000000,,2013-01-21 11:13:00,
2013-01-21 05:23:00,52.0,45.0,-100.00,SW,232,5.0,7.0,76,0.00,,,0.00,0.000000,,2013-01-21 11:23:00,
2013-01-21 05:33:00,52.0,45.0,-100.00,SW,232,5.0,7.0,76,0.00,,,0.00,0.000000,,2013-01-21 11:33:00,
2013-01-21 06:02:00,52.0,45.0,-100.00,West,259,6.0,9.0,77,0.00,,,0.00,0.000000,,2013-01-21 12:02:00,
2013-01-21 06:12:00,52.0,45.0,-100.00,West,259,6.0,9.0,77,0.00,,,0.00,0.000000,,2013-01-21 12:12:00,
2013-01-21 06:22:00,52.0,45.0,-100.00,West,259,6.0,9.0,77,0.00,,,0.00,0.000000,,2013-01-21 12:22:00,
2013-01-21 06:32:00,52.0,45.0,-100.00,West,259,6.0,9.0,77,0.00,,,0.00,0.000000,,2013-01-21 12:32:00,
2013-01-21 06:53:00,52.0,45.0,-100.00,WSW,244,7.0,11.0,76,0.00,,,0.00,0.000000,,2013-01-21 12:53:00,
2013-01-21 07:03:00,52.0,45.0,-100.00,WSW,244,7.0,11.0,76,0.00,,,0.00,0.000000,,2013-01-21 13:03:00,
2013-01-21 07:13:00,52.0,45.0,-100.00,WSW,244,7.0,11.0,76,0.00,,,0.00,0.000000,,2013-01-21 13:13:00,
2013-01-21 07:23:00,52.0,45.0,-100.00,WSW,244,7.0,11.0,76,0.00,,,0.00,0.000000,,2013-01-21 13:23:00,
2013-01-21 07:33:00,52.0,45.0,-100.00,WSW,244,7.0,11.0,76,0.00,,,0.00,0.000000,,2013-01-21 13:33:00,
2013-01-21 07:54:00,50.0,45.0,-100.00,NW,306,7.0,10.0,82,0.00,,,0.00,0.000000,,2013-01-21 13:54:00,
2013-01-21 08:03:00,50.0,45.0,-100.00,NW,306,7.0,10.0,82,0.00,,,0.00,0.000000,,2013-01-21 14:03:00,
2013-01-21 08:12:00,50.0,45.0,-100.00,NW,306,7.0,10.0,82,0.00,,,0.00,0.000000,,2013-01-21 14:12:00,
2013-01-21 08:23:00,50.0,45.0,-100.00,NW,306,7.0,10.0,82,0.00,,,0.00,0.000000,,2013-01-21 14:23:00,
2013-01-21 08:32:00,50.0,45.0,-100.00,NW,306,7.0,10.0,82,0.00,,,0.00,0.000000,,2013-01-21 14:32:00,
2013-01-21 08:53:00,53.0,45.0,-100.00,NW,305,9.0,11.0,74,0.00,,,0.00,75.000000,,2013-01-21 14:53:00,
2013-01-21 09:03:00,53.0,45.0,-100.00,NW,305,9.0,11.0,74,0.00,,,0.00,75.000000,,2013-01-21 15:03:00,
2013-01-21 09:13:00,53.0,45.0,-100.00,NW,305,9.0,11.0,74,0.00,,,0.00,75.000000,,2013-01-21 15:13:00,
2013-01-21 09:23:00,53.0,45.0,-100.00,NW,305,9.0,11.0,74,0.00,,,0.00,75.000000,,2013-01-21 15:23:00,
2013-01-21 09:33:00,53.0,45.0,-100.00,NW,305,9.0,11.0,74,0.00,,,0.00,75.000000,,2013-01-21 15:33:00,
2013-01-21 09:53:00,60.0,48.0,-100.00,NW,307,6.0,11.0,64,0.00,,,0.00,265.000000,,2013-01-21 15:53:00,
2013-01-21 10:03:00,60.0,48.0,-100.00,NW,307,6.0,11.0,64,0.00,,,0.00,265.000000,,2013-01-21 16:03:00,
2013-01-21 10:12:00,60.0,48.0,-100.00,NW,307,6.0,11.0,64,0.00,,,0.00,265.000000,,2013-01-21 16:12:00,
2013-01-21 10:23:00,60.0,48.0,-100.00,NW,307,6.0,11.0,64,0.00,,,0.00,265.000000,,2013-01-21 16:23:00,
2013-01-21 10:33:00,60.0,48.0,-100.00,NW,307,6.0,11.0,64,0.00,,,0.00,265.000000,,2013-01-21 16:33:00,
2013-01-21 10:53:00,59.0,42.0,-100.00,North,6,11.0,15.0,53,0.00,,,0.00,428.000000,,2013-01-21 16:53:00,
2013-01-21 11:03:00,59.0,42.0,-100.00,North,6,11.0,15.0,53,0.00,,,0.00,428.000000,,2013-01-21 17:03:00,
2013-01-21 11:12:00,59.0,42.0,-100.00,North,6,11.0,15.0,53,0.00,,,0.00,428.000000,,2013-01-21 17:12:00,
2013-01-21 11:23:00,59.0,42.0,-100.00,North,6,11.0,15.0,53,0.00,,,0.00,428.000000,,2013-01-21 17:23:00,
2013-01-21 11:33:00,59.0,42.0,-100.00,North,6,11.0,15.0,53,0.00,,,0.00,428.000000,,2013-01-21 17:33:00,
2013-01-21 11:53:00,60.0,41.0,-100.00,NE,36,9.0,14.0,50,0.00,,,0.00,554.000000,,2013-01-21 17:53:00,
2013-01-21 12:03:00,60.0,41.0,-100.00,NE,36,9.0,14.0,50,0.00,,,0.00,554.000000,,2013-01-21 18:03:00,
2013-01-21 12:12:00,60.0,41.0,-100.00,NE,36,9.0,14.0,50,0.00,,,0.00,554.000000,,2013-01-21 18:12:00,
2013-01-21 12:22:00,60.0,41.0,-100.00,NE,36,9.0,14.0,50,0.00,,,0.00,554.000000,,2013-01-21 18:22:00,
2013-01-21 12:33:00,60.0,41.0,-100.00,NE,36,9.0,14.0,50,0.00,,,0.00,554.000000,,2013-01-21 18:33:00,
2013-01-21 12:53:00,63.0,41.0,-100.00,NE,38,7.0,13.0,44,0.00,,,0.00,625.000000,,2013-01-21 18:53:00,
2013-01-21 13:03:00,63.0,41.0,-100.00,NE,38,7.0,13.0,44,0.00,,,0.00,625.000000,,2013-01-21 19:03:00,
2013-01-21 13:12:00,63.0,41.0,-100.00,NE,38,7.0,13.0,44,0.00,,,0.00,625.000000,,2013-01-21 19:12:00,
2013-01-21 13:22:00,63.0,41.0,-100.00,NE,38,7.0,13.0,44,0.00,,,0.00,625.000000,,2013-01-21 19:22:00,
2013-01-21 13:33:00,63.0,41.0,-100.00,NE,38,7.0,13.0,44,0.00,,,0.00,625.000000,,2013-01-21 19:33:00,
2013-01-21 13:53:00,65.0,41.0,-100.00,NNE,26,6.0,11.0,42,0.00,,,0.00,631.000000,,2013-01-21 19:53:00,
2013-01-21 14:03:00,65.0,41.0,-100.00,NNE,26,6.0,11.0,42,0.00,,,0.00,631.000000,,2013-01-21 20:03:00,
2013-01-21 14:12:00,65.0,41.0,-100.00,NNE,26,6.0,11.0,42,0.00,,,0.00,631.000000,,2013-01-21 20:12:00,
2013-01-21 14:23:00,65.0,41.0,-100.00,NNE,26,6.0,11.0,42,0.00,,,0.00,631.000000,,2013-01-21 20:23:00,
2013-01-21 14:33:00,65.0,41.0,-100.00,NNE,26,6.0,11.0,42,0.00,,,0.00,631.000000,,2013-01-21 20:33:00,
2013-01-21 14:53:00,66.0,42.0,-100.00,East,99,6.0,12.0,41,0.00,,,0.00,577.000000,,2013-01-21 20:53:00,
2013-01-21 15:04:00,66.0,42.0,-100.00,East,99,6.0,12.0,41,0.00,,,0.00,577.000000,,2013-01-21 21:04:00,
2013-01-21 15:12:00,66.0,42.0,-100.00,East,99,6.0,12.0,41,0.00,,,0.00,577.000000,,2013-01-21 21:12:00,
2013-01-21 15:23:00,66.0,42.0,-100.00,East,99,6.0,12.0,41,0.00,,,0.00,577.000000,,2013-01-21 21:23:00,
2013-01-21 15:33:00,66.0,42.0,-100.00,East,99,6.0,12.0,41,0.00,,,0.00,577.000000,,2013-01-21 21:33:00,
2013-01-21 16:03:00,68.0,42.0,-100.00,East,79,4.0,11.0,39,0.00,,,0.00,464.000000,,2013-01-21 22:03:00,
2013-01-21 16:12:00,68.0,42.0,-100.00,East,79,4.0,11.0,39,0.00,,,0.00,464.000000,,2013-01-21 22:12:00,
2013-01-21 16:23:00,68.0,42.0,-100.00,East,79,4.0,11.0,39,0.00,,,0.00,464.000000,,2013-01-21 22:23:00,
2013-01-21 16:33:00,68.0,42.0,-100.00,East,79,4.0,11.0,39,0.00,,,0.00,464.000000,,2013-01-21 22:33:00,
2013-01-21 16:53:00,66.0,42.0,-100.00,NE,53,8.0,12.0,41,0.00,,,0.00,297.000000,,2013-01-21 22:53:00,
2013-01-21 17:03:00,66.0,42.0,-100.00,NE,53,8.0,12.0,41,0.00,,,0.00,297.000000,,2013-01-21 23:03:00,
2013-01-21 17:13:00,66.0,42.0,-100.00,NE,53,8.0,12.0,41,0.00,,,0.00,297.000000,,2013-01-21 23:13:00,
2013-01-21 17:23:00,66.0,42.0,-100.00,NE,53,8.0,12.0,41,0.00,,,0.00,297.000000,,2013-01-21 23:23:00,
2013-01-21 17:33:00,66.0,42.0,-100.00,NE,53,8.0,12.0,41,0.00,,,0.00,297.000000,,2013-01-21 23:33:00,
2013-01-21 18:03:00,62.0,42.0,-100.00,ENE,60,7.0,12.0,47,0.00,,,0.00,119.000000,,2013-01-22 00:03:00,
2013-01-21 18:12:00,62.0,42.0,-100.00,ENE,60,7.0,12.0,47,0.00,,,0.00,119.000000,,2013-01-22 00:12:00,
2013-01-21 18:22:00,62.0,42.0,-100.00,ENE,60,7.0,12.0,47,0.00,,,0.00,119.000000,,2013-01-22 00:22:00,
2013-01-21 18:33:00,62.0,42.0,-100.00,ENE,60,7.0,12.0,47,0.00,,,0.00,119.000000,,2013-01-22 00:33:00,
2013-01-21 19:02:00,57.0,42.0,-100.00,ENE,62,7.0,12.0,58,0.00,,,0.00,8.000000,,2013-01-22 01:02:00,
2013-01-21 19:12:00,57.0,42.0,-100.00,ENE,62,7.0,12.0,58,0.00,,,0.00,8.000000,,2013-01-22 01:12:00,
2013-01-21 19:23:00,57.0,42.0,-100.00,ENE,62,7.0,12.0,58,0.00,,,0.00,8.000000,,2013-01-22 01:23:00,
2013-01-21 19:32:00,57.0,42.0,-100.00,ENE,62,7.0,12.0,58,0.00,,,0.00,8.000000,,2013-01-22 01:32:00,
2013-01-21 20:02:00,54.0,41.0,-100.00,NE,46,7.0,12.0,61,0.00,,,0.00,0.000000,,2013-01-22 02:02:00,
2013-01-21 20:12:00,54.0,41.0,-100.00,NE,46,7.0,12.0,61,0.00,,,0.00,0.000000,,2013-01-22 02:12:00,
2013-01-21 20:22:00,54.0,41.0,-100.00,NE,46,7.0,12.0,61,0.00,,,0.00,0.000000,,2013-01-22 02:22:00,
2013-01-21 20:32:00,54.0,41.0,-100.00,NE,46,7.0,12.0,61,0.00,,,0.00,0.000000,,2013-01-22 02:32:00,
2013-01-21 20:53:00,52.0,39.0,-100.00,NE,41,7.0,10.0,62,0.00,,,0.00,0.000000,,2013-01-22 02:53:00,
2013-01-21 21:03:00,52.0,39.0,-100.00,NE,41,7.0,10.0,62,0.00,,,0.00,0.000000,,2013-01-22 03:03:00,
2013-01-21 21:12:00,52.0,39.0,-100.00,NE,41,7.0,10.0,62,0.00,,,0.00,0.000000,,2013-01-22 03:12:00,
2013-01-21 21:22:00,52.0,39.0,-100.00,NE,41,7.0,10.0,62,0.00,,,0.00,0.000000,,2013-01-22 03:22:00,
2013-01-21 21:32:00,52.0,39.0,-100.00,NE,41,7.0,10.0,62,0.00,,,0.00,0.000000,,2013-01-22 03:32:00,
2013-01-21 21:53:00,51.0,38.0,-100.00,NNE,29,5.0,11.0,61,0.00,,,0.00,0.000000,,2013-01-22 03:53:00,
2013-01-21 22:03:00,51.0,38.0,-100.00,NNE,29,5.0,11.0,61,0.00,,,0.00,0.000000,,2013-01-22 04:03:00,
2013-01-21 22:12:00,51.0,38.0,-100.00,NNE,29,5.0,11.0,61,0.00,,,0.00,0.000000,,2013-01-22 04:12:00,
2013-01-21 22:22:00,51.0,38.0,-100.00,NNE,29,5.0,11.0,61,0.00,,,0.00,0.000000,,2013-01-22 04:22:00,
2013-01-21 22:32:00,51.0,38.0,-100.00,NNE,29,5.0,11.0,61,0.00,,,0.00,0.000000,,2013-01-22 04:32:00,
2013-01-21 22:52:00,50.0,37.0,-100.00,NE,40,7.0,13.0,61,0.00,,,0.00,0.000000,,2013-01-22 04:52:00,
2013-01-21 23:04:00,50.0,37.0,-100.00,NE,40,7.0,13.0,61,0.00,,,0.00,0.000000,,2013-01-22 05:04:00,
2013-01-21 23:12:00,50.0,37.0,-100.00,NE,40,7.0,13.0,61,0.00,,,0.00,0.000000,,2013-01-22 05:12:00,
2013-01-21 23:22:00,50.0,37.0,-100.00,NE,40,7.0,13.0,61,0.00,,,0.00,0.000000,,2013-01-22 05:22:00,
2013-01-21 23:32:00,50.0,37.0,-100.00,NE,40,7.0,13.0,61,0.00,,,0.00,0.000000,,2013-01-22 05:32:00,
2013-01-21 23:53:00,49.0,35.0,-100.00,NE,38,9.0,13.0,59,0.00,,,0.00,0.000000,,2013-01-22 05:53:00,